Weather History for Montego Bay, Jamaica

Change the Weather History Date:

Tuesday, November 20, 2012

  Actual Average Record
Temperature  
Mean Temperature 81 °F -  
Max Temperature 86 °F 83 °F 90 °F (2013)
Min Temperature 76 °F 74 °F 73 °F (1996)
Cooling Degree Days 16    
Growing Degree Days 31 (Base 50)    
Moisture  
Dew Point 73 °F    
Average Humidity 79    
Maximum Humidity 89    
Minimum Humidity 66    
Precipitation  
Precipitation 0.02 in - - ()
Sea Level Pressure  
Sea Level Pressure 29.89 in    
Wind  
Wind Speed 7 mph ()    
Max Wind Speed 15 mph    
Max Gust Speed -    
Visibility 8.2 miles    
Events Rain    
Averages and records for this station are not official NWS values.
T = Trace of Precipitation, MM = Missing Value Source: Averaged Metar Reports

Daily Weather History Graph

Daily Weather History Graph

Search for Another Location

Airport:

Trip Planner

Search our weather history database for the weather conditions in past years. The results will help you decide how hot, cold, wet, or windy it might be!

Date:

Astronomy

Nov. 20, 2012 Rise Set
Actual Time 6:21 AM EST 5:33 PM EST
Civil Twilight 5:58 AM EST 5:56 PM EST
Nautical Twilight 5:31 AM EST 6:23 PM EST
Astronomical Twilight 5:05 AM EST 6:49 PM EST
Moon 12:22 PM EST (11/20) No Moon Set
Length of Visible Light 11h 58m
Length of Day
11h 12m
Waxing Crescent, 51% of the Moon is Illuminated
Nov 20
Waxing Crescent
Nov 28
Full
Dec 6
Last Quarter
Dec 13
New
Dec 20
First Quarter

Hourly Weather History & Observations

Time (EST) Temp. Heat Index Dew Point Humidity Pressure Visibility Wind Dir Wind Speed Gust Speed Precip Events Conditions
12:00 AM 82.4 °F 88.2 °F 73.4 °F 74% 29.86 in 6.2 mi NE 13.8 mph - N/A   Mostly Cloudy
1:00 AM 78 °F - 74 °F 82% 29.89 in 12 mi East 4.6 mph - -   Mostly Cloudy
1:00 AM 77.0 °F - 73.4 °F 89% 29.89 in 6.2 mi East 4.6 mph - N/A   Mostly Cloudy
2:00 AM 78.8 °F - 73.4 °F 83% 29.86 in 6.2 mi East 5.8 mph - N/A   Mostly Cloudy
3:00 AM 78.8 °F - 73.4 °F 83% 29.86 in 6.2 mi East 3.5 mph - N/A   Mostly Cloudy
4:00 AM 78 °F - 73 °F 79% 29.87 in 12 mi East 3.5 mph - -   Mostly Cloudy
4:00 AM 78.8 °F - 73.4 °F 83% 29.86 in 6.2 mi East 3.5 mph - N/A   Mostly Cloudy
5:00 AM 77.0 °F - 71.6 °F 83% 29.86 in 6.2 mi ESE 3.5 mph - N/A   Mostly Cloudy
6:00 AM 77.0 °F - 73.4 °F 89% 29.89 in 6.2 mi South 3.5 mph - N/A   Mostly Cloudy
7:00 AM 79 °F - 75 °F 83% 29.91 in 17 mi South 3.5 mph - - Rain Light Rain Showers
7:00 AM 78.8 °F - 75.2 °F 89% 29.89 in 6.2 mi South 3.5 mph - N/A   Mostly Cloudy
8:00 AM 80.6 °F 85.4 °F 73.4 °F 79% 29.92 in 6.2 mi West 3.5 mph - N/A   Mostly Cloudy
10:00 AM 84 °F - 74 °F 66% 29.94 in 14 mi ENE 9.2 mph - -   Mostly Cloudy
10:00 AM 84.2 °F 92.3 °F 75.2 °F 74% 29.92 in 6.2 mi ENE 9.2 mph - N/A   Mostly Cloudy
11:00 AM 80.6 °F 86.2 °F 75.2 °F 84% 29.92 in 6.2 mi NE 11.5 mph - N/A   Mostly Cloudy
12:00 PM 80.6 °F 86.2 °F 75.2 °F 84% 29.89 in 6.2 mi NE 12.7 mph - N/A   Mostly Cloudy
1:00 PM 84 °F - 76 °F 70% 29.88 in 16 mi NE 11.5 mph - -   Partly Cloudy
1:00 PM 84.2 °F 92.3 °F 75.2 °F 74% 29.86 in 6.2 mi NE 11.5 mph - N/A   Mostly Cloudy
2:00 PM 82.4 °F 89.5 °F 75.2 °F 79% 29.86 in 6.2 mi NNE 12.7 mph - N/A   Mostly Cloudy
3:00 PM 82.4 °F 89.5 °F 75.2 °F 79% 29.86 in 6.2 mi NNE 12.7 mph - N/A   Mostly Cloudy
4:00 PM - - - %  in 14 mi NNE 12.7 mph - -  
4:00 PM 80.6 °F 85.4 °F 73.4 °F 79% 29.86 in 6.2 mi NE 10.4 mph - N/A   Scattered Clouds
5:00 PM 80.6 °F 85.4 °F 73.4 °F 79% 29.86 in 6.2 mi NNE 9.2 mph - N/A   Mostly Cloudy
7:00 PM 80 °F - 73 °F 73% 29.89 in 12 mi NNE 11.5 mph - -   Mostly Cloudy
7:00 PM 78.8 °F - 73.4 °F 83% 29.89 in 6.2 mi NNE 11.5 mph - N/A   Mostly Cloudy
8:00 PM 78.8 °F - 71.6 °F 78% 29.89 in 6.2 mi NNE 11.5 mph - N/A   Scattered Clouds
9:00 PM 80.6 °F 83.9 °F 69.8 °F 70% 29.92 in 6.2 mi NE 11.5 mph - N/A   Partly Cloudy
10:00 PM 80 °F - 71 °F 66% 29.92 in 12 mi NNE 15.0 mph - -   Scattered Clouds
10:00 PM 80.6 °F 83.9 °F 69.8 °F 70% 29.92 in 6.2 mi NNE 15.0 mph - N/A   Partly Cloudy
11:00 PM 80.6 °F 84.6 °F 71.6 °F 74% 29.92 in 6.2 mi NNE 12.7 mph - N/A   Partly Cloudy